SES-11 (ECHOSTAR 105)

Last updated on Thu Oct 30 2025 00:02:51 GMT+0000 (Coordinated Universal Time)

1 42967U 17063A 25302.11864090 -.00000079 00000+0 00000+0 0 9991 2 42967 0.0279 293.9581 0002854 280.0605 121.4721 1.00270613 29408
UTC large
Height (km)
Speed (km/s)
/
Latitude / Longitude
Inclination (degrees)
Orbital Period (minutes)
Azimuth
Elevation
Range (km)
Doppler Factor

Next 0 passes for location: London (51.5072 / 0.1276)

Sorry there are no passes over London.